When you browse on this site, cookies collect data to enhance your experience and personalize the content and advertising you see.
Visit our Privacy Policy to learn more. By continuing to use the site, you agree to this use of cookies and data.
  • In Spain
  • List of Countries
  • For 7 days
  • Water Temperature
  • Weather Map
  • Weather Widgets
  • user-avatar
    Login

    Hourly Weather Kasama

    Today, 21 October, Monday

    Time Temperature Precipitation Wind Pressure Humidity
    00:00 +25°C° 0.5 mm 2 mps 720 mmHg 95%
    01:00 +25°C° 0.5 mm 2 mps 720 mmHg 95%
    02:00 +25°C° 0 mm 2 mps 720 mmHg 94%
    03:00 +24°C° 0.3 mm 2 mps 720 mmHg 94%
    04:00 +24°C° 0.3 mm 1 mps 720 mmHg 94%
    05:00 +24°C° 0.3 mm 1 mps 721 mmHg 94%
    06:00 +25°C° 0 mm 1 mps 721 mmHg 91%
    07:00 +26°C° 0 mm 1 mps 721 mmHg 89%
    08:00 +27°C° 0 mm 1 mps 722 mmHg 86%
    09:00 +29°C° 0 mm 2 mps 722 mmHg 79%
    10:00 +30°C° 0 mm 2 mps 722 mmHg 73%
    11:00 +32°C° 0 mm 2 mps 722 mmHg 67%
    12:00 +32°C° 0 mm 2 mps 721 mmHg 64%
    13:00 +34°C° 0 mm 2 mps 720 mmHg 61%
    14:00 +34°C° 0 mm 1 mps 719 mmHg 59%
    15:00 +33°C° 0 mm 1 mps 719 mmHg 62%
    16:00 +32°C° 0 mm 1 mps 718 mmHg 66%
    17:00 +31°C° 0 mm 1 mps 718 mmHg 69%
    18:00 +30°C° 0.1 mm 1 mps 719 mmHg 72%
    19:00 +29°C° 0.1 mm 1 mps 719 mmHg 74%
    20:00 +28°C° 0.1 mm 1 mps 720 mmHg 77%
    21:00 +27°C° 0.7 mm 1 mps 720 mmHg 80%
    22:00 +27°C° 0.7 mm 1 mps 720 mmHg 83%
    23:00 +26°C° 0.7 mm 1 mps 720 mmHg 86%

    Tomorrow, 22 October, Tuesday

    Time Temperature Precipitation Wind Pressure Humidity
    00:00 +26°C° 0 mm 1 mps 719 mmHg 87%
    01:00 +26°C° 0 mm 1 mps 719 mmHg 88%
    02:00 +26°C° 0 mm 1 mps 719 mmHg 89%
    03:00 +25°C° 0 mm 1 mps 719 mmHg 89%
    04:00 +25°C° 0 mm 1 mps 719 mmHg 90%
    05:00 +25°C° 0 mm 1 mps 719 mmHg 90%
    06:00 +26°C° 0 mm 1 mps 719 mmHg 87%
    07:00 +27°C° 0 mm 1 mps 720 mmHg 83%
    08:00 +29°C° 0 mm 1 mps 720 mmHg 80%
    09:00 +30°C° 0 mm 1 mps 720 mmHg 73%
    10:00 +32°C° 0 mm 1 mps 720 mmHg 65%
    11:00 +34°C° 0 mm 1 mps 720 mmHg 58%
    12:00 +35°C° 0.4 mm 2 mps 719 mmHg 57%
    13:00 +35°C° 0.4 mm 2 mps 719 mmHg 57%
    14:00 +35°C° 0.4 mm 2 mps 718 mmHg 56%
    15:00 +34°C° 0.1 mm 2 mps 718 mmHg 61%
    16:00 +31°C° 0.1 mm 2 mps 718 mmHg 66%
    17:00 +30°C° 0.1 mm 1 mps 718 mmHg 71%
    18:00 +29°C° 0.4 mm 2 mps 718 mmHg 75%
    19:00 +28°C° 0.4 mm 2 mps 719 mmHg 79%
    20:00 +27°C° 0.4 mm 2 mps 720 mmHg 83%
    21:00 +26°C° 0.1 mm 2 mps 720 mmHg 85%
    22:00 +26°C° 0.1 mm 2 mps 720 mmHg 87%
    23:00 +26°C° 0.1 mm 2 mps 720 mmHg 89%

    Day after tomorrow, 23 October, Wednesday

    Time Temperature Precipitation Wind Pressure Humidity
    00:00 +25°C° 0.1 mm 2 mps 720 mmHg 90%
    01:00 +25°C° 0.1 mm 2 mps 720 mmHg 91%
    02:00 +25°C° 0.1 mm 2 mps 719 mmHg 92%
    03:00 +25°C° 0 mm 2 mps 719 mmHg 93%
    04:00 +24°C° 0 mm 2 mps 719 mmHg 93%
    05:00 +24°C° 0 mm 2 mps 720 mmHg 93%
    06:00 +25°C° 0 mm 2 mps 720 mmHg 89%
    07:00 +26°C° 0 mm 2 mps 721 mmHg 85%
    08:00 +27°C° 0 mm 3 mps 722 mmHg 81%
    09:00 +29°C° 0 mm 2 mps 721 mmHg 75%
    10:00 +30°C° 0 mm 2 mps 721 mmHg 68%
    11:00 +32°C° 0 mm 2 mps 721 mmHg 62%
    12:00 +34°C° 0 mm 2 mps 720 mmHg 60%
    13:00 +34°C° 0 mm 2 mps 719 mmHg 57%
    14:00 +35°C° 0 mm 2 mps 719 mmHg 55%
    15:00 +33°C° 0.5 mm 1 mps 719 mmHg 60%
    16:00 +32°C° 0.5 mm 1 mps 719 mmHg 66%
    17:00 +31°C° 0.5 mm 1 mps 719 mmHg 71%
    18:00 +29°C° 0.9 mm 1 mps 719 mmHg 75%
    19:00 +26°C° 0.9 mm 0 mps 719 mmHg 79%
    20:00 +25°C° 0.9 mm 0 mps 720 mmHg 83%
    21:00 +25°C° 0.2 mm 0 mps 720 mmHg 85%
    22:00 +24°C° 0.2 mm 0 mps 720 mmHg 86%
    23:00 +24°C° 0.2 mm 0 mps 720 mmHg 87%

    24 October, Thursday

    Time Temperature Precipitation Wind Pressure Humidity
    00:00 +24°C° 0 mm 0 mps 720 mmHg 88%
    01:00 +24°C° 0 mm 0 mps 719 mmHg 88%
    02:00 +24°C° 0 mm 0 mps 719 mmHg 88%
    03:00 +23°C° 0 mm 0 mps 719 mmHg 89%
    04:00 +23°C° 0 mm 0 mps 720 mmHg 90%
    05:00 +25°C° 0 mm 1 mps 720 mmHg 90%
    06:00 +26°C° 0 mm 1 mps 720 mmHg 87%
    07:00 +27°C° 0 mm 1 mps 721 mmHg 84%
    08:00 +28°C° 0 mm 1 mps 721 mmHg 81%
    09:00 +30°C° 0 mm 1 mps 721 mmHg 74%
    10:00 +32°C° 0 mm 1 mps 721 mmHg 67%
    11:00 +34°C° 0 mm 1 mps 721 mmHg 60%
    12:00 +34°C° 0 mm 1 mps 720 mmHg 56%
    13:00 +35°C° 0 mm 1 mps 719 mmHg 52%
    14:00 +34°C° 0 mm 0 mps 719 mmHg 49%
    15:00 +35°C° 0 mm 1 mps 718 mmHg 54%
    16:00 +33°C° 0 mm 1 mps 718 mmHg 58%
    17:00 +32°C° 0 mm 1 mps 718 mmHg 63%
    18:00 +30°C° 0.6 mm 1 mps 719 mmHg 69%
    19:00 +29°C° 0.6 mm 1 mps 719 mmHg 74%
    20:00 +27°C° 0.6 mm 1 mps 720 mmHg 79%
    21:00 +27°C° 0.3 mm 1 mps 720 mmHg 82%
    22:00 +26°C° 0.3 mm 1 mps 720 mmHg 84%
    23:00 +26°C° 0.3 mm 2 mps 720 mmHg 86%

    25 October, Friday

    Time Temperature Precipitation Wind Pressure Humidity
    00:00 +26°C° 0.1 mm 1 mps 720 mmHg 86%
    01:00 +26°C° 0.1 mm 1 mps 719 mmHg 86%
    02:00 +26°C° 0.1 mm 1 mps 719 mmHg 86%
    03:00 +26°C° 0 mm 1 mps 719 mmHg 87%
    04:00 +25°C° 0 mm 1 mps 720 mmHg 88%
    05:00 +25°C° 0 mm 1 mps 720 mmHg 89%
    06:00 +26°C° 0 mm 1 mps 720 mmHg 85%
    07:00 +28°C° 0 mm 1 mps 721 mmHg 81%
    08:00 +29°C° 0 mm 1 mps 722 mmHg 78%
    09:00 +31°C° 0 mm 1 mps 721 mmHg 70%
    10:00 +33°C° 0 mm 1 mps 721 mmHg 63%
    11:00 +34°C° 0 mm 1 mps 721 mmHg 56%
    12:00 +35°C° 0 mm 1 mps 720 mmHg 53%
    13:00 +36°C° 0 mm 1 mps 719 mmHg 49%
    14:00 +36°C° 0 mm 1 mps 719 mmHg 46%
    15:00 +35°C° 0.1 mm 1 mps 719 mmHg 52%
    16:00 +31°C° 0.1 mm 0 mps 718 mmHg 58%
    17:00 +30°C° 0.1 mm 0 mps 718 mmHg 64%
    18:00 +30°C° 0.5 mm 1 mps 719 mmHg 70%
    19:00 +29°C° 0.5 mm 1 mps 719 mmHg 75%
    20:00 +27°C° 0.5 mm 2 mps 719 mmHg 81%
    21:00 +27°C° 0 mm 1 mps 719 mmHg 82%
    22:00 +27°C° 0 mm 1 mps 720 mmHg 83%
    23:00 +26°C° 0 mm 1 mps 720 mmHg 84%

    26 October, Saturday

    Time Temperature Precipitation Wind Pressure Humidity
    00:00 +26°C° 0 mm 1 mps 719 mmHg 84%
    01:00 +26°C° 0 mm 1 mps 719 mmHg 84%
    02:00 +24°C° 0 mm 0 mps 719 mmHg 84%
    03:00 +24°C° 0 mm 0 mps 719 mmHg 84%
    04:00 +23°C° 0 mm 0 mps 719 mmHg 84%
    05:00 +23°C° 0 mm 0 mps 719 mmHg 85%
    06:00 +25°C° 0 mm 0 mps 720 mmHg 80%
    07:00 +26°C° 0 mm 0 mps 721 mmHg 76%
    08:00 +27°C° 0 mm 0 mps 721 mmHg 72%
    09:00 +30°C° 0 mm 0 mps 721 mmHg 65%
    10:00 +32°C° 0 mm 0 mps 721 mmHg 58%
    11:00 +34°C° 0 mm 0 mps 721 mmHg 51%
    12:00 +36°C° 0 mm 1 mps 720 mmHg 48%
    13:00 +36°C° 0 mm 1 mps 719 mmHg 45%
    14:00 +37°C° 0 mm 1 mps 718 mmHg 43%
    15:00 +35°C° 0 mm 1 mps 718 mmHg 47%
    16:00 +32°C° 0 mm 0 mps 718 mmHg 52%
    17:00 +31°C° 0 mm 0 mps 718 mmHg 57%
    18:00 +31°C° 0.5 mm 1 mps 718 mmHg 63%
    19:00 +29°C° 0.5 mm 1 mps 718 mmHg 70%
    20:00 +27°C° 0.5 mm 1 mps 718 mmHg 77%
    21:00 +27°C° 0.1 mm 1 mps 718 mmHg 75%
    22:00 +25°C° 0.1 mm 0 mps 719 mmHg 74%
    23:00 +25°C° 0.1 mm 0 mps 719 mmHg 72%

    27 October, Sunday

    Time Temperature Precipitation Wind Pressure Humidity
    00:00 +25°C° 0 mm 0 mps 719 mmHg 73%
    01:00 +25°C° 0 mm 0 mps 719 mmHg 73%
    02:00 +25°C° 0 mm 0 mps 718 mmHg 74%
    03:00 +24°C° 0.1 mm 0 mps 719 mmHg 76%
    04:00 +24°C° 0.1 mm 0 mps 719 mmHg 78%
    05:00 +23°C° 0.1 mm 0 mps 719 mmHg 80%
    06:00 +25°C° 0 mm 0 mps 720 mmHg 75%
    07:00 +26°C° 0 mm 0 mps 720 mmHg 71%
    08:00 +27°C° 0 mm 0 mps 721 mmHg 66%
    09:00 +31°C° 0 mm 1 mps 721 mmHg 60%
    10:00 +33°C° 0 mm 1 mps 720 mmHg 53%
    11:00 +34°C° 0 mm 1 mps 720 mmHg 46%
    12:00 +35°C° 0 mm 1 mps 719 mmHg 45%
    13:00 +35°C° 0 mm 1 mps 719 mmHg 43%
    14:00 +36°C° 0 mm 1 mps 718 mmHg 42%
    15:00 +34°C° 0 mm 1 mps 718 mmHg 46%
    16:00 +33°C° 0 mm 1 mps 718 mmHg 51%
    17:00 +32°C° 0 mm 1 mps 718 mmHg 56%
    18:00 +31°C° 0 mm 1 mps 718 mmHg 58%
    19:00 +28°C° 0 mm 0 mps 719 mmHg 60%
    20:00 +27°C° 0 mm 0 mps 719 mmHg 62%
    21:00 +28°C° 0 mm 1 mps 719 mmHg 66%
    22:00 +27°C° 0 mm 1 mps 719 mmHg 70%
    23:00 +27°C° 0 mm 1 mps 719 mmHg 74%
    Show more